Location: Rumah Long Bangan
(2.8362°N, 113.7519°E)
Time: 19:58:22
(UTC+00:00)

SAR-Lupe-3 - Pass Details

Date: 24 October 2021
Orbit: 479 x 487 km, 98.2° (Epoch: 10 April)

Event Time Altitude Azimuth Distance (km) Brightness Sun altitude
Rises 20:57:07 0° 9° (N) 2,520 8.2 -18.2°
Reaches altitude 10° 20:59:10 10° 8° (N) 1,644 7.2 -17.7°
Maximum altitude 21:02:41 76° 283° (WNW) 497 4.4 -16.8°
Drops below altitude 10° 21:06:13 10° 196° (SSW) 1,651 7.2 -16.0°
Sets 21:08:17 0° 194° (SSW) 2,532 8.2 -15.5°
